STARLINK-36553, 67506

Orbit data source: Space-Track

STARLINK-36553, 67506 is a payload satellite owned by SpaceX/Seattle (US) in LEO that was launched on Sun, 18 Jan 2026 UTC via an FALCON 9 launch vehicle from the Air Force Eastern Test Range (AFETR). Payload-class satellites include a variety of spacecraft equipped with specific instruments for various scientific and technological missions. These include communications satellites like Starlink; space stations such as the ISS; scientific satellites like the Hubble; Earth observation satellites from companies like Planet Labs, Umbra, and HawkEye 360; GPS; miniature CubeSats for education and research; and military/defense satellites.

Loading next visibility...
Identifier
67506, 2026-012P
Orbit
LEO
Country
Flag of USUS
Related business
Manufacturer
SpaceX/Seattle
Mission
Operational spacecraft
Bus & Motor
STARLINK V2MO, Unknown motor
Mass
575 kg wet, ~530 kg dry
Launch date (UTC)
2026-01-18 (2 weeks ago)
Launch vehicle
FALCON 9
Launch site
Air Force Eastern Test Range (AFETR)
Object type
Payload
Rocket body
Debris
Shape & HBR
Unknown shape, 17.7 m
Radar Cross Section
RCS unknown

Expand to show TLE details & history
Last TLE update: 15 hours ago

TLE from 15 hours ago
0 STARLINK-36553
1 67506U 26012P   26034.58335648 -.00039388  00000-0 -18523-3 0  9997
2 67506  42.9965 150.4213 0001407 258.1946 214.4141 15.82032083  3589
Epoch: 2026-02-03T14:00Z
TLE epoch observation values (Epoch: 2026-02-03T14:00:01.999Z)
Latitude
39.17012°
Longitude
-73.67487°
Altitude
327.729 km
Speed
7.717 km/s
True Right ascension
18h 00m 22s
True Declination
38° 59' 28"
Sunlit
Object was in daylight at epoch
Visualization orbit readout
Latitude
Unknown
Longitude
Unknown
Altitude
Unknown
Speed
Unknown
Apparent Right ascension
Unknown
Apparent Declination
Unknown
Sunlit
N/A
Visualization observer readout
Local Sidereal Time
07:05:30
Azimuth
Unknown
Elevation
Unknown
Doppler factor
Unknown
Orbital elements
Apogee altitude
327.63 km
Perigee altitude
325.743 km
Semi-major axis
6,704.823 km
Eccentricity
0.00014
Inclination
42.9965°
RAAN
150.4213°
Arg. of periapsis
258.1946°
True anomaly
214.40499°
Mean anomaly
214.4141°
Eccentric anomaly
214.40954°
Mean motion
3.95332 °/min
Orbital period
91.06 mins
BSTAR
-0.00018523
Loading maneuver chart data...
Computing Atmospheric mass density...
Loading historical data...
Loading historical data...
Loading historical data...
Loading historical data...
Loading historical data...
Loading historical data...
Loading historical data...

Documentation

Showing up to 5 results
|